Regional Weather Roundup
Issued by NWS

Home | Current Version | Previous Version | Text Only | Print | Product List | Glossary Off
Versions: 1 2 3 4 5 6 7 8 9 10 11 12 13 14 15 16 17 18 19 20 21 22 23 24 25 26 27 28 29 30 31 32 33 34 35 36 37 38 39 40 41 42 43 44 45 46 47 48 49 50

000
ASUS43 KFSD 270810
RWRSD

WEATHER ROUNDUP FOR SOUTH DAKOTA
NATIONAL WEATHER SERVICE SIOUX FALLS SD
300 AM CDT FRI MAR 27 2015

NOTE: "FAIR" INDICATES FEW OR NO CLOUDS BELOW 12,000 FEET WITH NO
SIGNIFICANT WEATHER AND/OR OBSTRUCTIONS TO VISIBILITY.


SDZ001>005-009-010-012>017-270900-
NORTHWEST AND NORTH CENTRAL SOUTH DAKOTA

CITY           SKY/WX    TMP DP  RH WIND       PRES   REMARKS
BUFFALO          N/A     33  31  92 S8        30.03F WCI  26
FAITH            N/A     32  26  78 S10       30.15F WCI  24
MOBRIDGE       CLOUDY    24  13  62 SE7       30.21F WCI  16
$$

SDZ012>016-024>037-041>051-057-063-072>074-270900-
SOUTHWEST AND SOUTH CENTRAL SOUTH DAKOTA

CITY           SKY/WX    TMP DP  RH WIND       PRES   REMARKS
RAPID CTY ARPT CLOUDY    33  27  78 SE9       30.13F WCI  25
PIERRE         CLOUDY    27  20  75 E7        30.24F WCI  19
CUSTER         MOCLDY    33  31  92 W8        30.09F WCI  26
ELLSWORTH AFB  CLOUDY    34  28  79 S8        30.11F WCI  27
PHILIP         CLOUDY    34  26  72 S7        30.19F WCI  28
PINE RIDGE     CLOUDY    34  31  88 S6        30.16S WCI  29
SPEARFISH      CLOUDY    39  34  81 CALM      30.09F
WINNER         CLOUDY    30  22  72 E9        30.25R WCI  22
$$

SDZ004>011-016>023-039-040-270900-
NORTHEAST SOUTH DAKOTA

CITY           SKY/WX    TMP DP  RH WIND       PRES   REMARKS
ABERDEEN       CLEAR     14   9  80 CALM      30.29F
WATERTOWN      CLEAR     13   8  81 NE7       30.24F WCI   3
SISSETON         N/A     15  12  88 NW5       30.28F WCI   8
$$

SDZ017-020-022-023-036>040-048>070-270900-
SOUTHEAST SOUTH DAKOTA

CITY           SKY/WX    TMP DP  RH WIND       PRES   REMARKS
SIOUX FALLS    CLEAR     18  12  77 N3        30.26S
HURON          CLEAR     13  10  88 CALM      30.29S
CHAMBERLAIN    MOCLDY    21  14  72 E3        30.27S
MITCHELL       CLEAR     17  12  80 NW5       30.30R WCI  10
YANKTON        CLEAR     23  12  63 N6        30.29R WCI  16
$$

ABBREVIATIONS USED IN REMARKS
   TC - TEMPERATURE IN CELSIUS
  WCI - WIND CHILL INDEX
   HX - HEAT INDEX
  VSB - VISIBILITY




USA.gov is the U.S. government's official web portal to all federal, state and local government web resources and services.